OKEAN-0
1 25860U 99039A 11138.96753678 .00000251 00000-0 45819-4 0 03113
2 25860 097.8806 106.2211 0001922 075.9184 284.2236 14.73780306636351
NOAA-16
1 26536U 00055A 11139.32018692 -.00000110 00000-0 -34191-4 0 3011
2 26536 099.1402 169.2735 0011455 112.3802 247.8572 14.12617590549284
NOAA-17
1 27453U 02032A 11139.44350181 .00000123 00000-0 71265-4 0 2948
2 27453 098.3806 180.4697 0010925 230.5348 129.4875 14.24272343462565
NOAA-18
1 28654U 05018A 11139.46168584 -.00000045 00000-0 10899-6 0 7740
2 28654 098.9941 090.5419 0014171 182.3427 177.7671 14.11473892308878
NOAA-19
1 33591U 09005A 11139.45258566 .00000403 00000-0 24746-3 0 9657
2 33591 098.8257 080.0921 0014997 059.5012 300.7622 14.11167686117330
HUBBLE
1 20580U 90037B 11138.47037934 .00000926 00000-0 57427-4 0 7674
2 20580 028.4697 210.5697 0003782 166.1084 193.9499 15.01357299955183
ISS
1 25544U 98067A 11139.85304498 .00065323 00000-0 42558-3 0 3840
2 25544 051.6494 306.1741 0003396 292.0861 209.4882 15.75273061716444
CO-58
1 28895U 05043F 11138.66630044 .00000485 00000-0 11001-3 0 08775
2 28895 097.9699 016.1900 0016795 316.3398 043.6490 14.60096761295935
FALCON
1 30776U 07006E 11138.51510848 .00001582 00000-0 11341-3 0 01027
2 30776 035.4324 167.3906 0001109 231.7096 128.3522 15.04581626230575
MAST
1 31126U 07012K 11138.92099533 .00000203 00000-0 56363-4 0 01621
2 31126 097.8964 167.7967 0092949 261.6267 097.4389 14.53742299216830
CAPE1
1 31130U 07012P 11138.60434546 .00000102 00000-0 34234-4 0 1786
2 31130 097.9009 164.3093 0101298 273.5097 085.4520 14.52382693216347
COMPASS
1 32787U 08021E 11138.64636906 .00000755 00000-0 10069-3 0 09910
2 32787 097.8494 203.0096 0014418 273.6845 086.2722 14.82389739165185
AAUSAT2
1 32788U 08021F 11138.68125120 .00001323 00000-0 17077-3 0 09802
2 32788 097.8499 203.2585 0014132 274.4829 085.4802 14.82574964165209
DO-64
1 32789U 08021G 11138.76744715 .00001915 00000-0 24176-3 0 09994
2 32789 097.8589 204.2917 0014136 270.6767 089.2801 14.83017431165228
CO-66
1 32791U 08021J 11138.65691929 .00000972 00000-0 12865-3 0 09841
2 32791 097.8508 202.9721 0014383 270.8677 089.0853 14.82088583165136
RS-30
1 32953U 08025A 11139.65447805 .00000010 00000-0 00000 0 0 7438
2 32953 082.5021 180.4604 0020495 089.2596 271.0835 12.43012694135540
TACSAT-3
1 35001U 09028A 11139.87820983 .00015858 00000-0 29380-3 0 5941
2 35001 040.4552 344.5876 0023625 354.8662 005.1908 15.48271702112699
PHARMSAT
1 35002U 09028B 11138.93559011 .00012900 00000-0 24218-3 0 05589
2 35002 040.4729 347.9189 0025557 354.4257 005.6272 15.47963544112579
HAWKSAT1
1 35003U 09028C 11139.87161154 .00060204 00000-0 64756-3 0 6224
2 35003 040.4568 317.4912 0021750 020.4076 339.7599 15.62494516112991
CP6
1 35004U 09028D 11139.81375700 .00087864 00000-0 76004-3 0 6256
2 35004 040.4555 310.6484 0020424 021.4153 338.7510 15.67835434113054
METEOR-M
1 35865U 09049A 11139.72133798 .00000176 00000-0 10000-3 0 3806
2 35865 098.7081 195.2153 0003175 102.0906 258.0575 14.21838547 86540
RS-38
1 35869U 09049E 11139.72489344 .00000177 00000-0 10000-3 0 3745
2 35869 098.7046 195.2555 0005283 106.6289 253.5437 14.22011126 86552
